Location: Newark
(39.0622°N, 106.5590°E)
Time: 22:43:33
(UTC+00:00)

Courier 1B - Pass Details

Date: 26 January 2020
Orbit: 962 x 1209 km, 28.3° (Epoch: 19 February)

Event Time Altitude Azimuth Distance (km) Brightness Sun altitude
Rises 00:59:15 0° 260° (W) 4,062 10.3 8.3°
Reaches altitude 10° 01:03:26 10° 240° (WSW) 3,123 9.9 9.0°
Maximum altitude 01:07:40 16° 206° (SSW) 2,733 10.0 9.7°
Drops below altitude 10° 01:11:55 10° 173° (S) 3,135 10.9 10.3°
Sets 01:16:09 0° 152° (SSE) 4,086 12.0 11.0°
